Waarnemingen

Advertentie
Mijn weer
Nikkaluokta, Zweden (2036): temperatuur & dauwpunt: 17.07.2018 07:00:00 - 23.07.2018 07:00:00 (CEST)Nikkaluokta, Zweden (2036): luchtdruk: 17.07.2018 07:00:00 - 23.07.2018 07:00:00 (CEST)Nikkaluokta, Zweden (2036): zicht: 17.07.2018 07:00:00 - 23.07.2018 07:00:00 (CEST)Nikkaluokta, Zweden (2036): neerslag: 17.07.2018 07:00:00 - 23.07.2018 07:00:00 (CEST)
Datum & Tijd tt [°C] td [°C] ppp [hPa] vv [km] rr [mm]
23.07.2018 07:00:00 14,8 14,6 1003,9 - 0,2
23.07.2018 06:00:00 13,6 13,4 1004,3 - 0,0
23.07.2018 05:00:00 11,7 11,5 1004,9 - 0,0
23.07.2018 04:00:00 10,7 10,5 1005,0 - 0,0
23.07.2018 03:00:00 10,1 9,9 1005,0 - 0,0
23.07.2018 02:00:00 11,9 11,7 1004,7 0,7 0,0
23.07.2018 01:00:00 12,4 12,2 1004,4 - 0,0
23.07.2018 00:00:00 12,6 12,4 1004,4 - 0,0
22.07.2018 23:00:00 13,6 13,3 1004,0 - 0,0
22.07.2018 22:00:00 14,9 14,6 1003,4 - 0,3
22.07.2018 21:00:00 17,0 16,0 1002,7 - 1,6
22.07.2018 20:00:00 18,1 16,3 1002,0 12 0,3
22.07.2018 19:00:00 19,4 16,4 1001,7 - 0,0
22.07.2018 18:00:00 20,2 15,4 1001,2 - 0,1
22.07.2018 17:00:00 21,0 16,2 1000,8 - 0,0
22.07.2018 16:00:00 20,6 15,8 1001,1 - 0,0
22.07.2018 15:00:00 20,1 17,1 1001,5 28 0,9
22.07.2018 14:00:00 21,2 13,9 1001,3 - 0,0
22.07.2018 13:00:00 22,0 12,8 1001,5 - 0,0
22.07.2018 12:00:00 21,0 14,9 1001,9 - 0,0
22.07.2018 11:00:00 20,5 14,6 1002,5 - 0,0
22.07.2018 10:00:00 21,3 13,7 1002,7 - 0,0
22.07.2018 09:00:00 19,4 15,1 1003,4 - 0,0
22.07.2018 08:00:00 17,2 15,2 1004,1 - 0,0
22.07.2018 07:00:00 16,0 15,5 1004,5 28 0,0
22.07.2018 06:00:00 14,6 14,4 1005,1 - 0,0
22.07.2018 05:00:00 13,5 13,3 1005,2 - 0,0
22.07.2018 04:00:00 13,5 13,3 1005,4 - 0,0
22.07.2018 03:00:00 13,3 13,1 1005,4 - 0,0
22.07.2018 02:00:00 12,3 12,1 1005,5 - 0,0
22.07.2018 01:00:00 14,7 13,2 1005,1 36 0,0
22.07.2018 00:00:00 16,3 13,2 1004,9 - 0,0
21.07.2018 23:00:00 18,8 13,4 1004,6 - 0,0
21.07.2018 22:00:00 20,1 12,6 1004,5 40 0,0
21.07.2018 21:00:00 21,3 12,7 1004,3 - 0,0
21.07.2018 20:00:00 22,1 12,9 1004,2 46 0,0
21.07.2018 19:00:00 23,4 9,0 1003,5 - 0,0
21.07.2018 18:00:00 24,1 11,4 1003,5 - 0,0
21.07.2018 17:00:00 22,5 13,6 1004,3 42 0,0
21.07.2018 16:00:00 23,4 10,1 1004,7 46 0,0
21.07.2018 15:00:00 - - - - -
21.07.2018 14:00:00 24,8 11,0 1004,7 - 0,0
21.07.2018 13:00:00 24,7 12,3 1005,4 - 0,0
21.07.2018 12:00:00 24,0 11,3 1006,2 - 0,0
21.07.2018 11:00:00 22,9 13,7 1006,9 - 0,0
21.07.2018 10:00:00 21,0 13,7 1007,8 - 0,0
21.07.2018 09:00:00 20,2 15,4 1008,4 - 0,0
21.07.2018 08:00:00 17,9 14,0 1009,3 - 0,0
21.07.2018 07:00:00 17,8 14,7 1009,7 - 0,0
21.07.2018 06:00:00 16,5 15,9 1010,4 - 0,0
21.07.2018 05:00:00 14,7 14,5 1010,9 - 0,0
21.07.2018 04:00:00 13,1 12,9 1011,4 - 0,0
21.07.2018 03:00:00 14,4 14,2 1011,2 - 0,5
21.07.2018 02:00:00 15,0 14,8 1011,2 - 0,3
21.07.2018 01:00:00 15,6 14,3 1011,9 - 0,0
21.07.2018 00:00:00 16,1 13,8 1011,7 - 0,0
20.07.2018 23:00:00 16,9 13,2 1011,3 50 0,0
20.07.2018 22:00:00 17,4 13,5 1011,2 - 0,0
20.07.2018 21:00:00 21,1 11,7 1010,6 - 0,0
20.07.2018 20:00:00 23,2 12,2 1009,5 38 0,0
20.07.2018 19:00:00 24,9 8,8 1009,2 - 0,0
20.07.2018 18:00:00 26,3 7,8 1009,0 - 0,0
20.07.2018 17:00:00 26,3 10,8 1009,3 - 0,0
20.07.2018 16:00:00 25,4 10,8 1009,9 - 0,0
20.07.2018 15:00:00 26,8 10,5 1010,1 - 0,0
20.07.2018 14:00:00 25,9 11,6 1010,6 - 0,0
20.07.2018 13:00:00 24,2 11,8 1011,3 - 0,0
20.07.2018 12:00:00 23,9 13,1 1011,8 - 0,0
20.07.2018 11:00:00 22,2 13,8 1012,9 - 0,0
20.07.2018 10:00:00 19,3 13,5 1013,8 - 0,0
20.07.2018 09:00:00 18,9 13,3 1014,3 - 0,0
20.07.2018 08:00:00 17,9 14,2 1014,9 43 0,0
20.07.2018 07:00:00 16,1 13,4 1015,5 48 0,0
20.07.2018 06:00:00 15,5 13,3 1016,0 - 0,0
20.07.2018 05:00:00 13,2 13,0 1016,7 - 0,0
20.07.2018 04:00:00 11,1 10,9 1017,4 - 0,0
20.07.2018 03:00:00 10,5 10,3 1017,6 - 0,0
20.07.2018 02:00:00 11,7 11,4 1017,5 - 0,0
20.07.2018 01:00:00 14,0 12,7 1016,9 - 0,0
20.07.2018 00:00:00 15,4 12,9 1016,9 50 0,0
19.07.2018 23:00:00 16,7 13,2 1016,4 50 0,0
19.07.2018 22:00:00 17,6 13,5 1016,0 - 0,0
19.07.2018 21:00:00 18,5 13,4 1015,6 - 0,0
19.07.2018 20:00:00 19,1 13,5 1015,1 - 0,0
19.07.2018 19:00:00 19,9 12,9 1014,5 - 0,0
19.07.2018 18:00:00 21,8 13,7 1014,0 - 0,0
19.07.2018 17:00:00 21,7 12,3 1013,7 45 0,0
19.07.2018 16:00:00 21,9 12,5 1013,2 - 0,0
19.07.2018 15:00:00 25,8 10,8 1012,1 - 0,0
19.07.2018 14:00:00 26,9 10,6 1011,8 - 0,0
19.07.2018 13:00:00 25,2 10,3 1012,7 - 0,0
19.07.2018 12:00:00 26,8 11,7 1012,6 - -
19.07.2018 11:00:00 - - - - -
19.07.2018 10:00:00 - - - - -
19.07.2018 09:00:00 - - - - -
19.07.2018 08:00:00 - - - - -
19.07.2018 07:00:00 - - - - -
19.07.2018 06:00:00 - - - - -
19.07.2018 05:00:00 - - - - -
19.07.2018 04:00:00 - - - - -
19.07.2018 03:00:00 - - - - -
19.07.2018 02:00:00 - - - - -
19.07.2018 01:00:00 - - - - -
19.07.2018 00:00:00 - - - - -
18.07.2018 23:00:00 - - - - -
18.07.2018 22:00:00 - - - - -
18.07.2018 21:00:00 - - - - -
18.07.2018 20:00:00 - - - - -
18.07.2018 19:00:00 - - - - -
18.07.2018 18:00:00 - - - - -
18.07.2018 17:00:00 - - - - -
18.07.2018 16:00:00 - - - - -
18.07.2018 15:00:00 - - - - -
18.07.2018 14:00:00 - - - - -
18.07.2018 13:00:00 - - - - -
18.07.2018 12:00:00 - - - - -
18.07.2018 11:00:00 - - - - -
18.07.2018 10:00:00 - - - - -
18.07.2018 09:00:00 - - - - -
18.07.2018 08:00:00 - - - - -
18.07.2018 07:00:00 - - - - -
18.07.2018 06:00:00 - - - - -
18.07.2018 05:00:00 - - - - -
18.07.2018 04:00:00 - - - - -
18.07.2018 03:00:00 - - - - -
18.07.2018 02:00:00 - - - - -
18.07.2018 01:00:00 - - - - -
18.07.2018 00:00:00 - - - - -
17.07.2018 23:00:00 - - - - -
17.07.2018 22:00:00 - - - - -
17.07.2018 21:00:00 - - - - -
17.07.2018 20:00:00 - - - - -
17.07.2018 19:00:00 - - - - -
17.07.2018 18:00:00 - - - - -
17.07.2018 17:00:00 - - - - -
17.07.2018 16:00:00 - - - - -
17.07.2018 15:00:00 - - - - -
17.07.2018 14:00:00 - - - - -
17.07.2018 13:00:00 - - - - -
17.07.2018 12:00:00 - - - - -
17.07.2018 11:00:00 - - - - -
17.07.2018 10:00:00 - - - - -
17.07.2018 09:00:00 - - - - -
17.07.2018 08:00:00 - - - - -
17.07.2018 07:00:00 - - - - -

tt = temperatuur
td = dauwpunt
ppp = luchtdruk
vv = zicht
rr = neerslag

Weerstations in de omgeving